| time (UTC) | temp C | wind direction | speed KPH | gust KPH | rain 1hr cm | rain 24hr cm | rain mn cm | humidity % | barometer mb |
| 20260505070110 | 16 | 238 | 0.0 | 0.0 | 0.00 | 0.00 | 0.00 | 66 | 1009.0 |
| 20260505064556 | 16 | 238 | 0.0 | 3.2 | 0.00 | 0.00 | 0.00 | 67 | 1009.1 |
| 20260505063052 | 16 | 238 | 0.0 | 1.6 | 0.00 | 0.00 | 0.00 | 67 | 1009.4 |
| 20260505061557 | 16 | 238 | 0.0 | 4.8 | 0.00 | 0.00 | 0.00 | 66 | 1009.4 |
| 20260505060049 | 15 | 222 | 0.0 | 3.2 | 0.00 | 0.00 | 0.00 | 66 | 1009.4 |
| 20260505054554 | 16 | 227 | 0.0 | 3.2 | 0.00 | 0.00 | 0.00 | 65 | 1009.4 |
| 20260505053055 | 16 | 240 | 0.0 | 6.4 | 0.00 | 0.00 | 0.00 | 65 | 1009.5 |
| 20260505051545 | 16 | 196 | 0.0 | 3.2 | 0.00 | 0.00 | 0.00 | 65 | 1009.3 |
| 20260505041542 | 16 | 197 | 0.0 | 3.2 | 0.00 | 0.00 | 0.00 | 64 | 1009.4 |
| 20260505040042 | 16 | 279 | 0.0 | 8.0 | 0.00 | 0.00 | 0.00 | 64 | 1009.3 |
| 20260505034537 | 15 | 215 | 1.6 | 4.8 | 0.00 | 0.00 | 0.00 | 64 | 1009.2 |
| 20260505033044 | 16 | 211 | 0.0 | 4.8 | 0.00 | 0.00 | 0.00 | 62 | 1009.1 |
| 20260505031535 | 16 | 244 | 0.0 | 3.2 | 0.00 | 0.00 | 0.00 | 61 | 1009.1 |
| 20260505030034 | 16 | 219 | 0.0 | 9.7 | 0.00 | 0.00 | 0.00 | 61 | 1009.0 |
| 20260505024534 | 16 | 215 | 0.0 | 4.8 | 0.00 | 0.00 | 0.00 | 60 | 1009.3 |
| 20260505023036 | 16 | 215 | 1.6 | 8.0 | 0.00 | 0.00 | 0.00 | 60 | 1009.4 |
| 20260505021533 | 16 | 163 | 0.0 | 3.2 | 0.00 | 0.00 | 0.00 | 59 | 1009.3 |
| 20260505020033 | 17 | 163 | 0.0 | 4.8 | 0.00 | 0.00 | 0.00 | 58 | 1009.2 |
| 20260505014532 | 17 | 163 | 0.0 | 4.8 | 0.00 | 0.00 | 0.00 | 58 | 1009.2 |
| 20260505013031 | 17 | 191 | 0.0 | 4.8 | 0.00 | 0.00 | 0.00 | 59 | 1009.4 |
| 20260505011529 | 17 | 214 | 1.6 | 4.8 | 0.00 | 0.00 | 0.00 | 57 | 1009.2 |
| 20260505010029 | 17 | 204 | 0.0 | 4.8 | 0.00 | 0.00 | 0.00 | 57 | 1009.0 |
| 20260505004533 | 18 | 216 | 1.6 | 9.7 | 0.00 | 0.00 | 0.00 | 56 | 1008.8 |
| 20260505003028 | 18 | 179 | 1.6 | 8.0 | 0.00 | 0.00 | 0.00 | 54 | 1008.7 |
| 20260505001528 | 18 | 188 | 1.6 | 12.9 | 0.00 | 0.00 | 0.00 | 52 | 1008.7 |
| 20260505000028 | 19 | 200 | 1.6 | 8.0 | 0.00 | 0.00 | 0.00 | 52 | 1008.6 |
| 20260504234527 | 19 | 165 | 3.2 | 12.9 | 0.00 | 0.00 | 0.00 | 51 | 1008.5 |
| 20260504233026 | 20 | 173 | 1.6 | 11.3 | 0.00 | 0.00 | 0.00 | 50 | 1008.5 |
| 20260504231526 | 20 | 214 | 1.6 | 9.7 | 0.00 | 0.00 | 0.00 | 49 | 1008.4 |
| 20260504230027 | 21 | 240 | 1.6 | 12.9 | 0.00 | 0.00 | 0.00 | 47 | 1008.5 |
| 20260504224526 | 21 | 216 | 6.4 | 19.3 | 0.00 | 0.00 | 0.00 | 44 | 1008.5 |
| 20260504223023 | 21 | 238 | 4.8 | 19.3 | 0.00 | 0.00 | 0.00 | 43 | 1008.5 |
| 20260504221524 | 22 | 234 | 6.4 | 24.1 | 0.00 | 0.00 | 0.00 | 43 | 1008.5 |
| 20260504220024 | 22 | 239 | 8.0 | 24.1 | 0.00 | 0.00 | 0.00 | 42 | 1008.6 |
| 20260504214520 | 22 | 183 | 4.8 | 27.4 | 0.00 | 0.00 | 0.00 | 43 | 1008.7 |
| 20260504213022 | 22 | 198 | 6.4 | 19.3 | 0.00 | 0.00 | 0.00 | 41 | 1008.5 |
| 20260504211519 | 22 | 256 | 6.4 | 24.1 | 0.00 | 0.00 | 0.00 | 41 | 1008.8 |
| 20260504210023 | 22 | 240 | 1.6 | 32.2 | 0.00 | 0.00 | 0.00 | 44 | 1008.7 |
| 20260504204516 | 22 | 276 | 3.2 | 19.3 | 0.00 | 0.00 | 0.00 | 43 | 1008.7 |
| 20260504203015 | 22 | 209 | 8.0 | 22.5 | 0.00 | 0.00 | 0.00 | 39 | 1008.9 |
| 20260504201513 | 22 | 257 | 3.2 | 22.5 | 0.00 | 0.00 | 0.00 | 41 | 1009.0 |
| 20260504200023 | 22 | 219 | 1.6 | 16.1 | 0.00 | 0.00 | 0.00 | 42 | 1009.2 |
| 20260504194508 | 21 | 220 | 4.8 | 19.3 | 0.00 | 0.00 | 0.00 | 41 | 1009.5 |
| 20260504193005 | 22 | 171 | 6.4 | 25.7 | 0.00 | 0.00 | 0.00 | 43 | 1009.8 |
| 20260504191504 | 22 | 291 | 3.2 | 17.7 | 0.00 | 0.00 | 0.00 | 43 | 1010.1 |
| 20260504190111 | 21 | 206 | 8.0 | 24.1 | 0.00 | 0.00 | 0.00 | 42 | 1010.3 |
| 20260504190003 | 21 | 229 | 4.8 | 24.1 | 0.00 | 0.00 | 0.00 | 42 | 1010.2 |
| 20260504184614 | 21 | 141 | 6.4 | 22.5 | 0.00 | 0.00 | 0.00 | 42 | 1010.6 |
| 20260504183056 | 21 | 215 | 6.4 | 24.1 | 0.00 | 0.00 | 0.00 | 41 | 1010.8 |
| 20260504181553 | 21 | 214 | 4.8 | 22.5 | 0.00 | 0.00 | 0.00 | 43 | 1010.9 |
| 20260504180052 | 20 | 238 | 9.7 | 25.7 | 0.00 | 0.00 | 0.00 | 42 | 1011.2 |
| 20260504174549 | 21 | 171 | 3.2 | 14.5 | 0.00 | 0.00 | 0.00 | 43 | 1011.2 |
| 20260504173049 | 20 | 219 | 3.2 | 16.1 | 0.00 | 0.00 | 0.00 | 44 | 1011.4 |
| 20260504171545 | 20 | 238 | 4.8 | 22.5 | 0.00 | 0.00 | 0.00 | 44 | 1011.8 |
| 20260504081528 | 8 | 224 | 3.2 | 9.7 | 0.00 | 0.00 | 0.00 | 57 | 1014.4 |